Flag for Canada Weather past 2 weeks in Glace Bay, Nova Scotia, Canada

25 °F

Partly sunny.

Feels Like: 16 °F
Forecast: 25 / 28 °F
Wind: 8 mph from Northwest

Location: Sydney

Current Time: Nov 30, 2015 at 3:20:57 PM

Latest Report: Nov 30, 2015 at 3:00 PM

Visibility: 15 mi

Pressure: 30.39 "Hg

Humidity: 63%

Dew point: 14 °F

Location of Glace BayLocation

Historic Weather in Glace Bay — Graph


Glace Bay temperature yesterday

Maximum temperature yesterday: 36 °F (at 12:00 PM)
Minimum temperature yesterday: 25 °F (at 11:00 PM)
Average temperature yesterday: 31 °F

Past Weeks' High & Low Weather Summary

High57 °F (Nov 23, 2:00 AM)100% (Nov 18, 9:54 PM)31.00 "Hg (Nov 18, 9:54 PM)
Low19 °F (Nov 26, 2:00 AM)54% (Nov 30, 1:00 AM)28.05 "Hg (Nov 26, 6:00 AM)
Average38 °F81%30.21 "Hg
* Reported Nov 15 2:00 PM — Nov 30 2:00 PM, Glace Bay, Weather by CustomWeather, © 2015

Note: Actual official high and low records may vary slightly from our data, if they occured in-between our weather recording intervals... More about our weather records


Glace Bay weather history for previous 24 hours

Time TempWeatherWind HumidityBarometerVisibility
2:00 PM
Mon, Nov 30
25 °FSnow flurries. Partly sunny.8 mph74%30.37 "Hg15 mi
1:52 PM25 °FSnow flurries. Broken clouds.7 mph74%30.37 "Hg10 mi
1:00 PM25 °FSnow flurries. Partly sunny.14 mph69%30.37 "Hg15 mi
12:00 PM23 °FSnow flurries. Partly sunny.20 mph74%30.38 "Hg15 mi
11:00 AM25 °FPartly sunny.12 mph69%30.38 "Hg15 mi
10:00 AM21 °FSnow flurries. Partly sunny.14 mph80%30.36 "Hg15 mi
9:00 AM21 °FPartly sunny.20 mph58%30.35 "Hg15 mi
8:00 AM21 °FPartly sunny.17 mph58%30.32 "Hg15 mi
7:00 AM21 °FPassing clouds.21 mph63%30.28 "Hg12 mi
6:58 AM21 °FPassing clouds.18 mph63%30.28 "Hg12 mi
6:00 AM23 °FSnow flurries. Passing clouds.15 mph68%30.24 "Hg10 mi
5:49 AM23 °FSnow flurries. Passing clouds.17 mph68%30.24 "Hg10 mi
5:00 AM23 °FPartly cloudy.17 mph63%30.21 "Hg15 mi
4:46 AM23 °FPartly cloudy.17 mph63%30.21 "Hg15 mi
4:00 AM23 °FSnow flurries. Mostly cloudy.17 mph63%30.19 "Hg10 mi
3:56 AM23 °FHeavy mixture of precip. Mostly cloudy.21 mph63%30.19 "Hg10 mi
3:00 AM23 °FPassing clouds.20 mph63%30.17 "Hg15 mi
2:00 AM23 °FPassing clouds.16 mph58%30.15 "Hg15 mi
1:00 AM25 °FSnow flurries. Passing clouds.22 mph54%30.13 "Hg15 mi
12:00 AM25 °FSnow flurries. Partly cloudy.17 mph69%30.12 "Hg10 mi
11:00 PM
Sun, Nov 29
25 °FSnow flurries. Passing clouds.20 mph74%30.09 "Hg10 mi
10:00 PM27 °FPartly cloudy.20 mph64%30.07 "Hg15 mi
9:00 PM27 °FSnow flurries. Passing clouds.20 mph59%30.07 "Hg15 mi
8:00 PM28 °FSnow flurries. Mostly cloudy.18 mph69%30.07 "Hg10 mi
7:00 PM30 °FSnow flurries. Mostly cloudy.10 mph80%30.03 "Hg4 mi
6:00 PM30 °FSnow flurries. Mostly cloudy.17 mph75%30.01 "Hg10 mi
5:00 PM32 °FSnow flurries. Passing clouds.12 mph69%29.99 "Hg15 mi
4:00 PM32 °FPartly sunny.13 mph69%29.96 "Hg15 mi
3:00 PM34 °FPartly sunny.15 mph65%29.96 "Hg15 mi
Weather by CustomWeather, © 2015

See weather overviewHow to use our weather pages